Weather History for Palmdale, CA

Change the Weather History Date:

Wednesday, October 3, 2012

  Actual Average Record
Temperature  
Mean Temperature 83 °F 68 °F  
Max Temperature 92 °F 84 °F 100 °F (1980)
Min Temperature 73 °F 52 °F 36 °F (1971)
Degree Days  
Heating Degree Days 0 1  
Month to date heating degree days 0 3  
Since 1 July heating degree days 0 15  
Cooling Degree Days 18 4  
Month to date cooling degree days 47 13  
Year to date cooling degree days 2243 1770  
Growing Degree Days 33 (Base 50)    
Moisture  
Dew Point 34 °F    
Average Humidity 19    
Maximum Humidity 27    
Minimum Humidity 11    
Precipitation  
Precipitation 0.00 in 0.01 in 0.20 in (1968)
Month to date precipitation 0.00 0.02  
Year to date precipitation 1.79 5.87  
Since 1 July precipitation T 0.55  
Snow  
Snow 0.00 in - 0.00 in (1973)
Month to date snowfall 0.0  
Since 1 July snowfall 0.0  
Since 1 September snowfall 0.0  
Snow Depth 0.00 in    
Sea Level Pressure  
Sea Level Pressure 29.90 in    
Wind  
Wind Speed 15 mph (SW)    
Max Wind Speed 26 mph    
Max Gust Speed 31 mph    
Visibility 10 miles    
Events      
T = Trace of Precipitation, MM = Missing Value Source: NWS Daily Summary

Daily Weather History Graph

Daily Weather History Graph

Search for Another Location

Airport:

Trip Planner

Search our weather history database for the weather conditions in past years. The results will help you decide how hot, cold, wet, or windy it might be!

Date:

Astronomy

Oct. 03, 2012 Rise Set
Actual Time 6:48 AM PDT 6:32 PM PDT
Civil Twilight 6:23 AM PDT 6:57 PM PDT
Nautical Twilight 5:54 AM PDT 7:27 PM PDT
Astronomical Twilight 5:25 AM PDT 7:56 PM PDT
Moon 8:38 PM PDT (10/3) 10:06 AM PDT (10/3)
Length of Visible Light 12h 34m
Length of Day
11h 43m
Waning Gibbous, 88% of the Moon is Illuminated
Oct 3
Waning Gibbous
Oct 8
Last Quarter
Oct 15
New
Oct 21
First Quarter
Oct 29
Full

Hourly Weather History & Observations

Time (PDT) Temp. Dew Point Humidity Pressure Visibility Wind Dir Wind Speed Gust Speed Precip Events Conditions
12:53 AM 80.1 °F 30.9 °F 17% 29.86 in 10.0 mi SW 15.0 mph - N/A   Clear
1:53 AM 78.1 °F 30.9 °F 18% 29.86 in 10.0 mi SW 11.5 mph - N/A   Clear
2:53 AM 75.0 °F 30.0 °F 19% 29.87 in 10.0 mi West 8.1 mph - N/A   Clear
3:53 AM 78.1 °F 30.0 °F 17% 29.86 in 10.0 mi SW 11.5 mph - N/A   Clear
4:53 AM 78.1 °F 30.9 °F 18% 29.87 in 10.0 mi WSW 6.9 mph - N/A   Clear
5:53 AM 78.1 °F 30.0 °F 17% 29.88 in 10.0 mi SW 18.4 mph - N/A   Clear
6:53 AM 78.1 °F 30.0 °F 17% 29.90 in 10.0 mi SW 17.3 mph - N/A   Clear
7:53 AM 80.1 °F 30.9 °F 17% 29.91 in 10.0 mi SSW 10.4 mph - N/A   Clear
8:53 AM 84.0 °F 30.9 °F 15% 29.93 in 10.0 mi SW 13.8 mph - N/A   Clear
9:53 AM 86.0 °F 30.9 °F 14% 29.94 in 10.0 mi SW 16.1 mph - N/A   Clear
10:53 AM 88.0 °F 30.0 °F 12% 29.93 in 10.0 mi SW 24.2 mph 29.9 mph N/A   Clear
11:53 AM 91.0 °F 30.9 °F 12% 29.93 in 10.0 mi SW 19.6 mph 27.6 mph N/A   Clear
12:53 PM 91.0 °F 30.0 °F 11% 29.91 in 10.0 mi South 21.9 mph 31.1 mph N/A   Clear
1:53 PM 91.0 °F 32.0 °F 12% 29.89 in 10.0 mi SW 20.7 mph 27.6 mph N/A   Clear
2:53 PM 89.1 °F 35.1 °F 15% 29.89 in 10.0 mi SW 23.0 mph 28.8 mph N/A   Clear
3:53 PM 87.1 °F 39.9 °F 19% 29.89 in 10.0 mi SW 23.0 mph 31.1 mph N/A   Clear
4:53 PM 84.9 °F 41.0 °F 21% 29.90 in 10.0 mi SW 19.6 mph 26.5 mph N/A   Clear
5:53 PM 81.0 °F 41.0 °F 24% 29.90 in 10.0 mi SW 20.7 mph - N/A   Clear
6:53 PM 78.1 °F 39.9 °F 25% 29.91 in 10.0 mi SW 19.6 mph - N/A   Clear
7:53 PM 77.0 °F 39.0 °F 25% 29.92 in 10.0 mi SSW 18.4 mph 27.6 mph N/A   Clear
8:53 PM 75.9 °F 39.0 °F 26% 29.93 in 10.0 mi SW 16.1 mph 25.3 mph N/A   Clear
9:53 PM 75.9 °F 36.0 °F 23% 29.94 in 10.0 mi SW 19.6 mph - N/A   Clear
10:53 PM 75.0 °F 33.1 °F 22% 29.95 in 10.0 mi SW 15.0 mph - N/A   Clear
11:53 PM 75.0 °F 32.0 °F 21% 29.94 in 10.0 mi SW 16.1 mph - N/A   Clear